This demonstration page uses our WeatherBlox Daily Observations layout. Learn more.

36.19886, -115.1175

Hourly Observations for November 6, 2018

Temp ( °F °C ) Dew Point ( °F °C ) Humidity (%) Winds ( mph kmh ) Pressure ( in mb ) Visibility ( mi km ) Precip ( " mm )
12:53 am 00:53 Clear 57 13.9 29 -1.7 34 34 NNW 6 9 29.88 1012 10 16.09344 0 0
1:53 am 01:53 Clear 57 13.9 27 -2.8 32 32 W 5 7 29.88 1012 10 16.09344 0 0
2:53 am 02:53 Clear 59 15 23 -5 25 25 NNW 12 19 29.88 1012 10 16.09344 0 0
3:53 am 03:53 Clear 57 13.9 25 -3.9 29 29 NNW 6 9 29.91 1013 10 16.09344 0 0
4:53 am 04:53 Clear 55 12.8 18 -7.8 23 23 NW 9 15 29.94 1014 10 16.09344 0 0
5:53 am 05:53 Clear 56 13.3 15 -9.4 20 20 NNW 8 13 29.97 1015 10 16.09344 0 0
6:53 am 06:53 Sunny 57 13.9 14 -10 18 18 NNW 5 7 29.97 1015 10 16.09344 0 0
7:53 am 07:53 Sunny 62 16.7 16 -8.9 17 17 NNE 5 7 30 1016 10 16.09344 0 0
8:53 am 08:53 Sunny 67 19.4 13 -10.6 12 12 N 6 9 30 1016 10 16.09344 0 0
9:53 am 09:53 Sunny 68 20 16 -8.9 13 13 SE 7 11 30 1016 10 16.09344 0 0
10:53 am 10:53 Sunny 70 21.1 14 -10 11 11 SE 5 7 30 1016 10 16.09344 0 0
11:53 am 11:53 Sunny 72 22.2 13 -10.6 10 10 SSE 5 7 29.97 1015 10 16.09344 0 0
12:53 pm 12:53 Sunny 73 22.8 10 -12.2 9 9 Calm 29.94 1014 10 16.09344 0 0
1:53 pm 13:53 Sunny 74 23.3 10 -12.2 8 8 Calm 29.94 1014 10 16.09344 0 0
2:53 pm 14:53 Sunny 75 23.9 10 -12.2 8 8 SE 3 6 29.91 1013 10 16.09344 0 0
3:53 pm 15:53 Sunny 74 23.3 11 -11.7 9 9 Calm 29.91 1013 10 16.09344 0 0
4:53 pm 16:53 Clear 71 21.7 11 -11.7 10 10 Calm 29.94 1014 10 16.09344 0 0
5:53 pm 17:53 Clear 69 20.6 14 -10 12 12 Calm 29.94 1014 10 16.09344 0 0
6:53 pm 18:53 Clear 63 17.2 21 -6.1 20 20 NW 7 11 29.94 1014 10 16.09344 0 0
7:53 pm 19:53 Clear 59 15 23 -5 25 25 NW 5 7 29.94 1014 10 16.09344 0 0
8:53 pm 20:53 Clear 59 15 22 -5.6 24 24 WNW 7 11 29.97 1015 10 16.09344 0 0
9:53 pm 21:53 Clear 56 13.3 20 -6.7 24 24 NW 7 11 29.97 1015 10 16.09344 0 0
10:53 pm 22:53 Clear 53 11.7 18 -7.8 25 25 NNW 6 9 29.97 1015 10 16.09344 0 0
11:53 pm 23:53 Clear 55 12.8 17 -8.3 22 22 WNW 8 13 29.97 1015 10 16.09344 0 0

Powered by AerisWeather